{"data":{"norad_id":56100,"epoch":"2026-05-25T02:43:09.525216Z","epoch_age_seconds":65491,"freshness":"FRESH","line1":"1 56100U 23046H   26145.11330469  .00000738  00000+0  36365-4 0  9996","line2":"2 56100  43.0033  89.6225 0001499 282.4619  77.6065 15.27576187173724","mean_motion":15.27576187,"eccentricity":0.0001499,"inclination_deg":43.0033,"raan_deg":89.6225,"arg_perigee_deg":282.4619,"mean_anomaly_deg":77.6065,"bstar":3.6365e-5,"rev_number":17372,"period_min":94.266984013937,"perigee_km":482.03202004984,"apogee_km":484.0890070644,"semimajor_km":6861.1975135571,"source":"CELESTRAK","updated_at":"2026-05-25T13:38:17.954102Z"}}